GW6017 Weather Reports


time (UTC)temp
C
wind
direction
speed
KPH
gust
KPH
rain 1hr
cm
rain 24hr
cm
rain mn
cm
humidity
%
barometer
mb
20260503181018 11 135 4.8 11.3 0.00 0.00 0.00 78 1020.1
20260503180518 11 135 4.8 8.0 0.00 0.00 0.00 78 1020.2
20260503180012 11 135 6.4 11.3 0.00 0.00 0.00 77 1020.2
20260503175518 11 158 6.4 11.3 0.00 0.00 0.00 77 1020.3
20260503175018 11 135 8.0 12.9 0.00 0.00 0.00 77 1020.2
20260503174623 11 158 8.0 12.9 0.00 0.00 0.00 76 1020.4
20260503174018 11 158 8.0 12.9 0.00 0.00 0.00 76 1020.4
20260503173518 11 135 8.0 12.9 0.00 0.00 0.00 76 1020.4
20260503173007 11 135 8.0 12.9 0.00 0.00 0.00 76 1020.5
20260503172539 11 158 6.4 12.9 0.00 0.00 0.00 75 1020.5
20260503172018 11 135 6.4 12.9 0.00 0.00 0.00 75 1020.5
20260503171518 11 135 8.0 12.9 0.00 0.00 0.00 75 1020.5
20260503171018 11 158 8.0 12.9 0.00 0.00 0.00 75 1020.6
20260503170518 11 158 8.0 12.9 0.00 0.00 0.00 75 1020.7
20260503150519 11 180 3.2 6.4 0.00 0.00 0.00 73 1020.5
20260503131019 14 135 8.0 14.5 0.00 0.00 0.00 62 1019.6
20260503130518 14 135 6.4 12.9 0.00 0.00 0.00 62 1019.5
20260503110518 16 135 4.8 8.0 0.00 0.00 0.00 53 1018.6
20260503081518 21 135 9.7 19.3 0.00 0.00 0.00 38 1017.7
20260503081018 21 135 11.3 25.7 0.00 0.00 0.00 38 1017.8
20260503080518 21 113 11.3 24.1 0.00 0.00 0.00 39 1017.8
20260503072518 21 113 14.5 22.5 0.00 0.00 0.00 38 1017.9
20260503072018 21 113 12.9 22.5 0.00 0.00 0.00 38 1017.9
20260503071518 21 113 11.3 22.5 0.00 0.00 0.00 38 1017.9
20260503071018 21 113 11.3 19.3 0.00 0.00 0.00 38 1017.9
20260503070518 21 113 11.3 22.5 0.00 0.00 0.00 38 1018.0
20260503055018 20 113 12.9 20.9 0.00 0.00 0.00 37 1018.4
20260503054539 20 113 9.7 16.1 0.00 0.00 0.00 39 1018.4
20260503054017 20 113 12.9 24.1 0.00 0.00 0.00 39 1018.5
20260503053517 20 113 11.3 22.5 0.00 0.00 0.00 39 1018.5
20260503053008 20 113 12.9 22.5 0.00 0.00 0.00 39 1018.5
20260503052517 20 113 12.9 22.5 0.00 0.00 0.00 38 1018.6
20260503052018 20 135 9.7 17.7 0.00 0.00 0.00 38 1018.7
20260503051518 20 135 12.9 30.6 0.00 0.00 0.00 40 1018.7
20260503051018 20 113 11.3 19.3 0.00 0.00 0.00 40 1018.7
20260503050518 20 113 14.5 22.5 0.00 0.00 0.00 40 1018.6
20260503050028 20 113 12.9 20.9 0.00 0.00 0.00 40 1018.7
20260503045517 20 113 12.9 24.1 0.00 0.00 0.00 40 1018.8
20260503045017 20 90 14.5 27.4 0.00 0.00 0.00 40 1018.9
20260503044518 20 113 16.1 29.0 0.00 0.00 0.00 40 1018.9
20260503044038 20 90 14.5 25.7 0.00 0.00 0.00 41 1019.1
20260503043518 19 90 14.5 22.5 0.00 0.00 0.00 41 1019.0
20260503043009 19 90 14.5 27.4 0.00 0.00 0.00 41 1019.3
20260503042518 19 113 12.9 20.9 0.00 0.00 0.00 43 1019.4
20260503042017 19 113 14.5 22.5 0.00 0.00 0.00 42 1019.5
20260503041518 19 90 14.5 29.0 0.00 0.00 0.00 41 1019.5
20260503041017 19 90 14.5 24.1 0.00 0.00 0.00 42 1019.6
20260503040518 19 90 16.1 22.5 0.00 0.00 0.00 41 1019.6
20260503040007 18 90 14.5 24.1 0.00 0.00 0.00 43 1019.6
20260503035538 18 113 12.9 24.1 0.00 0.00 0.00 43 1019.7
20260503035017 18 90 17.7 24.1 0.00 0.00 0.00 43 1019.7
20260503034518 18 113 14.5 22.5 0.00 0.00 0.00 43 1019.8
20260503034017 18 113 14.5 25.7 0.00 0.00 0.00 43 1019.8
20260503033517 18 90 17.7 29.0 0.00 0.00 0.00 43 1020.0
20260503033029 18 113 12.9 25.7 0.00 0.00 0.00 44 1019.9
20260503032517 18 113 12.9 25.7 0.00 0.00 0.00 44 1020.2
20260503032017 17 113 14.5 22.5 0.00 0.00 0.00 45 1020.1
20260503031517 18 90 17.7 27.4 0.00 0.00 0.00 44 1020.2
20260503031017 17 113 17.7 25.7 0.00 0.00 0.00 45 1020.2
20260503030517 17 90 19.3 27.4 0.00 0.00 0.00 45 1020.3
20260503030005 17 90 19.3 29.0 0.00 0.00 0.00 45 1020.5
20260503025517 17 90 16.1 25.7 0.00 0.00 0.00 45 1020.7
20260503025018 17 90 14.5 24.1 0.00 0.00 0.00 47 1020.6
20260503024517 17 113 16.1 25.7 0.00 0.00 0.00 48 1020.7
20260503024017 16 113 16.1 25.7 0.00 0.00 0.00 49 1020.6
20260503023538 16 113 19.3 30.6 0.00 0.00 0.00 48 1020.8
20260503023014 17 90 19.3 29.0 0.00 0.00 0.00 47 1020.9
20260503022538 17 90 16.1 27.4 0.00 0.00 0.00 48 1020.9
20260503022017 16 90 20.9 32.2 0.00 0.00 0.00 49 1021.0
20260503021518 17 90 19.3 29.0 0.00 0.00 0.00 50 1021.1
20260503021017 16 90 19.3 29.0 0.00 0.00 0.00 50 1021.1
20260503020518 16 90 20.9 37.0 0.00 0.00 0.00 52 1021.2
20260503020011 16 90 20.9 32.2 0.00 0.00 0.00 53 1021.1
20260503015517 16 90 19.3 30.6 0.00 0.00 0.00 53 1021.1
20260503015017 15 90 22.5 32.2 0.00 0.00 0.00 55 1021.1
20260503014517 15 90 22.5 32.2 0.00 0.00 0.00 56 1021.0
20260503014017 15 90 19.3 30.6 0.00 0.00 0.00 58 1021.1
20260503013517 15 90 19.3 27.4 0.00 0.00 0.00 57 1021.1
20260503013006 15 90 19.3 33.8 0.00 0.00 0.00 59 1021.0
20260503012517 14 90 20.9 33.8 0.00 0.00 0.00 59 1021.0
20260503012019 14 90 22.5 32.2 0.00 0.00 0.00 60 1021.1
20260503011538 13 113 19.3 30.6 0.00 0.00 0.00 62 1021.0
20260503011019 13 113 17.7 32.2 0.00 0.00 0.00 63 1021.0
20260503010519 13 113 16.1 25.7 0.00 0.00 0.00 65 1020.9
20260503010009 12 113 11.3 20.9 0.00 0.00 0.00 68 1020.9
20260503005519 12 113 11.3 20.9 0.00 0.00 0.00 69 1021.0
20260503005019 12 113 9.7 20.9 0.00 0.00 0.00 71 1020.8
20260503004519 11 135 9.7 20.9 0.00 0.00 0.00 72 1020.8
20260503004019 11 135 11.3 20.9 0.00 0.00 0.00 73 1020.8
20260503003519 11 135 8.0 14.5 0.00 0.00 0.00 74 1020.8
20260503003007 11 135 6.4 12.9 0.00 0.00 0.00 74 1020.8
20260503002519 10 135 8.0 14.5 0.00 0.00 0.00 75 1020.8
20260503002040 10 135 8.0 14.5 0.00 0.00 0.00 76 1020.8
20260503001519 10 135 6.4 12.9 0.00 0.00 0.00 77 1020.7
20260503001019 10 135 6.4 12.9 0.00 0.00 0.00 78 1020.6
20260503000540 9 135 6.4 12.9 0.00 0.00 0.00 79 1020.7
20260503000013 9 158 6.4 12.9 0.00 0.00 0.00 79 1020.4
20260502235519 8 158 8.0 14.5 0.00 0.00 0.00 79 1020.5
20260502235019 8 135 6.4 11.3 0.00 0.00 0.00 80 1020.5
20260502234601 8 135 6.4 12.9 0.00 0.00 0.00 80 1020.3
20260502234019 8 135 6.4 11.3 0.00 0.00 0.00 80 1020.3
20260502233519 8 135 4.8 8.0 0.00 0.00 0.00 80 1020.4
20260502233008 8 135 8.0 14.5 0.00 0.00 0.00 80 1020.2
20260502232519 8 158 8.0 14.5 0.00 0.00 0.00 80 1020.2
20260502232040 8 158 9.7 14.5 0.00 0.00 0.00 80 1020.2
20260502231621 8 158 8.0 12.9 0.00 0.00 0.00 80 1020.1
20260502231039 8 135 8.0 12.9 0.00 0.00 0.00 81 1020.0
20260502230519 7 135 6.4 12.9 0.00 0.00 0.00 81 1020.0
20260502230008 7 135 8.0 14.5 0.00 0.00 0.00 81 1019.9
20260502225519 7 135 6.4 12.9 0.00 0.00 0.00 81 1019.9
20260502225019 7 135 9.7 14.5 0.00 0.00 0.00 81 1019.8
20260502224519 7 135 8.0 14.5 0.00 0.00 0.00 81 1019.8
20260502224019 7 135 6.4 11.3 0.00 0.00 0.00 81 1019.8
20260502223519 7 135 4.8 9.7 0.00 0.00 0.00 82 1019.9
20260502223007 7 135 4.8 11.3 0.00 0.00 0.00 82 1019.8
20260502222518 7 135 4.8 8.0 0.00 0.00 0.00 82 1019.7
20260502222040 7 158 8.0 12.9 0.00 0.00 0.00 81 1019.7
20260502221519 7 158 8.0 12.9 0.00 0.00 0.00 81 1019.8
20260502221019 7 158 6.4 12.9 0.00 0.00 0.00 80 1019.8
20260502220519 8 158 8.0 14.5 0.00 0.00 0.00 80 1019.8
20260502220008 8 158 6.4 9.7 0.00 0.00 0.00 80 1019.7
20260502215519 8 158 6.4 9.7 0.00 0.00 0.00 80 1019.7
20260502215018 8 135 4.8 9.7 0.00 0.00 0.00 79 1019.7
20260502214519 8 135 4.8 6.4 0.00 0.00 0.00 78 1019.7
20260502214018 8 135 3.2 6.4 0.00 0.00 0.00 77 1019.7
20260502213518 8 113 1.6 4.8 0.00 0.00 0.00 76 1019.6
20260502213007 8 113 6.4 11.3 0.00 0.00 0.00 77 1019.7
20260502212518 8 113 4.8 9.7 0.00 0.00 0.00 78 1019.7
20260502212018 8 113 4.8 9.7 0.00 0.00 0.00 79 1019.8
20260502211518 8 113 4.8 6.4 0.00 0.00 0.00 80 1019.7
20260502211018 7 135 3.2 4.8 0.00 0.00 0.00 80 1019.7
20260502210518 7 135 4.8 8.0 0.00 0.00 0.00 81 1019.6
20260502210008 7 135 4.8 8.0 0.00 0.00 0.00 81 1019.6
20260502205518 7 158 4.8 6.4 0.00 0.00 0.00 81 1019.6
20260502205039 7 158 3.2 6.4 0.00 0.00 0.00 81 1019.5
20260502204541 7 158 3.2 6.4 0.00 0.00 0.00 81 1019.5
20260502204101 7 180 3.2 6.4 0.00 0.00 0.00 81 1019.5
20260502203519 7 180 3.2 6.4 0.00 0.00 0.00 80 1019.5
20260502203007 7 158 3.2 6.4 0.00 0.00 0.00 80 1019.5
20260502202518 8 158 3.2 6.4 0.00 0.00 0.00 80 1019.5
20260502202018 8 158 4.8 8.0 0.00 0.00 0.00 79 1019.5
20260502201539 8 158 4.8 8.0 0.00 0.00 0.00 79 1019.5
20260502201100 8 158 4.8 8.0 0.00 0.00 0.00 79 1019.5
20260502200519 8 158 4.8 8.0 0.00 0.00 0.00 79 1019.4
20260502200009 8 158 3.2 8.0 0.00 0.00 0.00 80 1019.5
20260502195519 8 158 3.2 8.0 0.00 0.00 0.00 79 1019.4
20260502195019 8 158 3.2 8.0 0.00 0.00 0.00 80 1019.4
20260502194518 8 158 4.8 8.0 0.00 0.00 0.00 80 1019.3
20260502194019 7 158 3.2 8.0 0.00 0.00 0.00 80 1019.4
20260502193518 7 180 4.8 6.4 0.00 0.00 0.00 80 1019.4
20260502193006 7 180 3.2 6.4 0.00 0.00 0.00 80 1019.4
20260502192519 8 158 1.6 6.4 0.00 0.00 0.00 79 1019.4
20260502192018 8 180 3.2 8.0 0.00 0.00 0.00 79 1019.3
20260502191518 8 158 3.2 8.0 0.00 0.00 0.00 78 1019.4
20260502191018 8 135 6.4 8.0 0.00 0.00 0.00 78 1019.3
20260502190518 8 158 8.0 12.9 0.00 0.00 0.00 78 1019.4
20260502190007 8 135 6.4 11.3 0.00 0.00 0.00 78 1019.4
20260502185518 8 135 6.4 9.7 0.00 0.00 0.00 78 1019.3
20260502185018 8 135 6.4 11.3 0.00 0.00 0.00 79 1019.4
20260502184539 8 158 6.4 9.7 0.00 0.00 0.00 79 1019.3
20260502184018 8 135 6.4 11.3 0.00 0.00 0.00 79 1019.3
20260502183539 8 158 4.8 8.0 0.00 0.00 0.00 79 1019.4
20260502183010 8 158 1.6 6.4 0.00 0.00 0.00 79 1019.3
20260502182518 8 158 3.2 8.0 0.00 0.00 0.00 78 1019.4
20260502182019 8 135 4.8 8.0 0.00 0.00 0.00 78 1019.4
20260502181600 8 135 4.8 8.0 0.00 0.00 0.00 78 1019.5